map of KOE home
Great Circle Mapper logo
KOE - Airport
Location
City:  Kupang, Nusa Tenggara Timur, Indonesia
Name:Eltari Airport
Old (Alt.):El Tari Airport
ICAO:WATT
IATA:KOE

Details
Type:Airport (Aerodrome, Airfield)
Use:Public/Civil, Military, International (customs port of entry)
Latitude:1010'18"S (-10.171582)
Longitude:12340'16"E (123.671136)
Datum:WGS 1984
Elevation:335 ft (102 m)
Variation:1.62E (WMM2015 magnetic declination)
-0.10 annual change
Runways:2
Longest:8202 × 148 ft (2500 × 45 m), paved

Time
Time Zone:UTC+8
Local Time:

Weather
METAR:WATT 252200Z 02002KT 9999 FEW020 23/23 Q1011 NOSIG
TAF:WATT 242300Z 2500/2524 11010KT 9999 SCT018
BECMG 2502/2503 32010KT
TEMPO 2505/2508 TS FEW017CB BKN017
BECMG 2511/2512 10005KT FEW020

Related Locations
Nearby:
Farthest:OGL: 12173 mi / 19590 km
Ogle, DE, GY

Find:

   beyond  
but within

Other Information
Maps:
NOTAMs:
Links:
Sources:

  
flag of Indonesia
flag of Nusa Tenggara Timur
  

Sectional Chart

Flight Planning
at skyvector.com

Satellite Image

Google Maps Satellite view

 

Copyright © 2004-2016 Karl L. Swartz. All rights reserved.
The Great Circle Mapper name and logo are trademarks of the Great Circle Mapper.
All other trademarks mentioned herein belong to their respective owners.
Please see credits for attibutions and further copyright information.

  Follow gcmap on Facebook Follow gcmap on Twitter Follow gcmap on Google+ GCmap on LinkedIn

hCard Microformat

Geo Microformat